Location: Schommer Observatory
(40.5200°N, 74.4500°W)
Time: 12:05:41
(UTC-05:00)

Vanguard 1 Rocket - Visible Passes

Search period start: 13 December 2017 00:00
Search period end: 23 December 2017 00:00
Orbit: 656 x 4222 km, 34.3° (Epoch: 13 December)

Date Brightness Start Highest point End Pass type
(mag) Time Alt. Az. Time Alt. Az. Time Alt. Az.
13 Dec 9.7 17:26:48 10° WSW 17:36:52 61° SSE 17:54:09 14° E visible
13 Dec 10.0 19:51:27 10° W 20:05:54 70° S 20:11:26 57° SE visible
13 Dec 10.8 22:18:18 10° W 22:28:43 40° WSW 22:28:43 40° WSW visible
14 Dec11.801:27:43S01:27:43S00:46:00Wvisible
14 Dec 9.8 18:40:29 10° WSW 18:52:27 70° S 19:04:17 33° ESE visible
14 Dec 10.3 21:06:10 10° W 21:21:34 60° SSW 21:21:34 60° SSW visible
14 Dec 11.4 23:34:57 10° W 00:20:04 - SSE 23:38:52 18° W visible
15 Dec 9.6 17:29:58 10° WSW 17:39:47 65° SSE 17:57:11 14° E visible
15 Dec 10.0 19:54:43 10° W 20:08:46 67° S 20:14:29 54° SE visible
15 Dec 10.8 22:21:40 10° W 22:31:47 36° WSW 22:31:47 36° WSW visible
16 Dec11.901:29:32S01:29:32S00:49:05Wvisible
16 Dec 9.7 18:43:45 10° W 18:55:24 69° S 19:07:28 31° ESE visible
16 Dec 10.3 21:09:28 10° W 21:24:46 54° SSW 21:24:46 54° SSW visible
16 Dec 11.5 23:38:56 10° W 00:21:41 - SSE 23:42:05 16° W visible
17 Dec 9.5 17:33:13 10° WSW 17:42:46 67° S 18:00:31 12° E visible
17 Dec 10.0 19:58:00 10° W 20:11:37 62° SSW 20:17:50 49° SSE visible
17 Dec 10.9 22:25:13 10° W 22:35:10 33° WSW 22:35:10 33° WSW visible
18 Dec 9.7 18:47:04 10° W 18:58:23 66° S 19:11:00 29° ESE visible
18 Dec 10.5 21:12:52 10° W 21:28:02 48° SSW 21:28:19 48° SSW visible
18 Dec 11.5 23:43:33 10° W 23:45:39 13° W 23:45:39 13° W visible
19 Dec 9.5 17:36:31 10° WSW 17:45:49 67° S 18:04:16 10° E visible
19 Dec 10.1 20:01:21 10° W 20:14:28 56° SSW 20:21:36 43° SSE visible
19 Dec 11.0 22:29:03 10° W 22:38:57 28° WSW 22:38:57 28° WSW visible
20 Dec 9.8 18:50:24 10° W 19:01:23 62° S 19:15:02 24° ESE visible
20 Dec 10.6 21:16:23 10° W 21:30:44 41° SSW 21:32:23 40° SSW visible
20 Dec 11.6 23:49:24 10° WSW 23:49:45 10° WSW 23:49:45 10° WSW visible
21 Dec 9.4 17:39:50 10° W 17:48:54 65° S 18:06:59 10° ESE visible
21 Dec 10.3 20:04:46 10° W 20:17:21 49° SSW 20:26:01 35° SSE visible
21 Dec 11.2 22:33:20 10° W 22:43:23 24° SW 22:43:23 24° SW visible
22 Dec 9.9 18:53:46 10° W 19:04:24 56° SSW 19:19:51 19° SE visible
22 Dec 10.8 21:20:09 10° W 21:33:29 33° SSW 21:37:15 32° SSW visible
